Zurück zum Katalog

STARLINK-36410

AktivKommunikationVLEO
NORAD 67337·PAYLOAD·🇺🇸 United States

Gestartet Jan 9, 2026 von Cape Canaveral Space Force Station

Loading…

Nächste Überflüge (nächste 24 Stunden)

TLE

AktuellSource: CelesTrak SupGP

Epoche: Sep 14, 2026, 20:53 UTC

1 67337C 26003D   26257.87062500  .00041079  00000+0  14881-2 0  2578
2 67337  43.0017 239.0660 0001713 265.9749  41.2382 15.27552330    17

Verfolge STARLINK-36410 in Echtzeit mit AllMySat

Download on the App Store